N2332E KMLB-KMEM

Flight info

Callsign N2332E
Flight time N/A
Altitude 40000
Route WORMS JEEMY ACCHE PAINN SHRKS Q89 HESPI GAD TALLO MKL WLDER1
Aircraft C25C/M-VGDW/C

Departure

Time 2026-04-24 00:29
Airport Melbourne Orlando International Airport (KMLB)

Arrival

Time N/A
Airport Memphis International Airport (KMEM)
Time Latitude Longitude Altitude Speed Heading
2026-04-24 00:21 28.10789 -80.64836 34 ft 0 kts 348°
2026-04-24 00:24 28.10793 -80.64837 34 ft 2 kts 348°
2026-04-24 00:25 28.10813 -80.64849 34 ft 5 kts 281°
2026-04-24 00:25 28.10800 -80.64861 34 ft 5 kts 211°
2026-04-24 00:25 28.10800 -80.64877 35 ft 5 kts 297°
2026-04-24 00:25 28.10798 -80.64888 35 ft 5 kts 226°
2026-04-24 00:26 28.10744 -80.64885 35 ft 13 kts 185°
2026-04-24 00:26 28.10675 -80.64993 36 ft 26 kts 271°
2026-04-24 00:26 28.10675 -80.65094 36 ft 2 kts 246°
2026-04-24 00:26 28.10680 -80.65118 36 ft 8 kts 334°
2026-04-24 00:27 28.10669 -80.65169 36 ft 11 kts 281°
2026-04-24 00:27 28.10668 -80.65218 36 ft 6 kts 271°
2026-04-24 00:27 28.10664 -80.65329 36 ft 22 kts 264°
2026-04-24 00:27 28.10653 -80.65530 33 ft 26 kts 266°
2026-04-24 00:28 28.10646 -80.65746 31 ft 28 kts 268°
2026-04-24 00:28 28.10633 -80.65952 28 ft 17 kts 263°
2026-04-24 00:28 28.10585 -80.65982 27 ft 8 kts 172°
2026-04-24 00:28 28.10549 -80.65933 27 ft 12 kts 95°
2026-04-24 00:29 28.10565 -80.65497 33 ft 107 kts 87°
2026-04-24 00:29 28.10590 -80.64365 533 ft 160 kts 94°
2026-04-24 00:29 28.10434 -80.62960 1620 ft 200 kts 100°
2026-04-24 00:29 28.10091 -80.61255 2539 ft 249 kts 106°
2026-04-24 00:30 28.09960 -80.59249 3382 ft 245 kts 71°
2026-04-24 00:30 28.10854 -80.57863 3888 ft 194 kts 46°
2026-04-24 00:30 28.11542 -80.56793 4413 ft 150 kts 61°
2026-04-24 00:30 28.12371 -80.56246 4596 ft 179 kts 347°
2026-04-24 00:31 28.13532 -80.56674 6164 ft 152 kts 347°
2026-04-24 00:31 28.14579 -80.57064 7451 ft 183 kts 331°
2026-04-24 00:31 28.15806 -80.57974 8062 ft 238 kts 324°
2026-04-24 00:31 28.17296 -80.59173 8694 ft 285 kts 324°
2026-04-24 00:32 28.19011 -80.60603 9327 ft 325 kts 323°
2026-04-24 00:32 28.20915 -80.62217 9948 ft 357 kts 323°
2026-04-24 00:32 28.22833 -80.63850 10704 ft 322 kts 322°
2026-04-24 00:32 28.24624 -80.65384 11566 ft 325 kts 323°
2026-04-24 00:33 28.26451 -80.66941 12419 ft 331 kts 322°
2026-04-24 00:33 28.28307 -80.68527 13265 ft 336 kts 323°
2026-04-24 00:33 28.30185 -80.70130 14105 ft 340 kts 322°
2026-04-24 00:33 28.32053 -80.71724 14977 ft 341 kts 323°
2026-04-24 00:34 28.33951 -80.73346 15856 ft 341 kts 322°
2026-04-24 00:34 28.35850 -80.74964 16733 ft 341 kts 323°
2026-04-24 00:34 28.37745 -80.76586 17603 ft 341 kts 322°
2026-04-24 00:34 28.39027 -80.77678 18201 ft 341 kts 323°
2026-04-24 00:35 28.41543 -80.79829 19337 ft 342 kts 323°
2026-04-24 00:35 28.42832 -80.80925 19929 ft 343 kts 323°
2026-04-24 00:35 28.44740 -80.82556 20797 ft 344 kts 322°
2026-04-24 00:35 28.46657 -80.84188 21667 ft 344 kts 323°
2026-04-24 00:36 28.48575 -80.85829 22535 ft 344 kts 323°
2026-04-24 00:36 28.50467 -80.87441 23392 ft 344 kts 322°
2026-04-24 00:36 28.52377 -80.89079 24255 ft 343 kts 323°
2026-04-24 00:36 28.54277 -80.90704 25118 ft 340 kts 322°
2026-04-24 00:37 28.56159 -80.92316 25979 ft 337 kts 323°
2026-04-24 00:37 28.58019 -80.93909 26839 ft 332 kts 322°
2026-04-24 00:37 28.60468 -80.95999 27985 ft 325 kts 323°
2026-04-24 00:37 28.61658 -80.97018 28552 ft 321 kts 322°
2026-04-24 00:38 28.63426 -80.98525 29403 ft 314 kts 323°
2026-04-24 00:38 28.65154 -81.00001 30252 ft 307 kts 323°
2026-04-24 00:38 28.66841 -81.01438 31098 ft 298 kts 323°
2026-04-24 00:38 28.68478 -81.02828 31938 ft 288 kts 323°
2026-04-24 00:39 28.70056 -81.04172 32773 ft 277 kts 323°
2026-04-24 00:39 28.71551 -81.05437 33590 ft 264 kts 323°
2026-04-24 00:39 28.72985 -81.06653 34406 ft 249 kts 323°
2026-04-24 00:39 28.74325 -81.07788 35203 ft 232 kts 323°
2026-04-24 00:40 28.75567 -81.08834 35993 ft 211 kts 323°
2026-04-24 00:40 28.76682 -81.09776 36714 ft 188 kts 323°
2026-04-24 00:40 28.77740 -81.10666 36937 ft 197 kts 322°
2026-04-24 00:40 28.78894 -81.11636 36948 ft 216 kts 323°
2026-04-24 00:41 28.80150 -81.12699 37017 ft 232 kts 323°
2026-04-24 00:41 28.81491 -81.13832 37115 ft 247 kts 323°
2026-04-24 00:41 28.82917 -81.15036 37227 ft 262 kts 323°
2026-04-24 00:41 28.84420 -81.16311 37347 ft 276 kts 323°
2026-04-24 00:42 28.85998 -81.17648 37468 ft 289 kts 323°
2026-04-24 00:42 28.87648 -81.19045 37587 ft 302 kts 323°
2026-04-24 00:42 28.89337 -81.20481 37701 ft 314 kts 323°
2026-04-24 00:42 28.91124 -81.21998 37812 ft 326 kts 323°
2026-04-24 00:43 28.92940 -81.23540 37913 ft 337 kts 323°
2026-04-24 00:43 28.94846 -81.25153 37718 ft 346 kts 320°
2026-04-24 00:43 28.96870 -81.26741 37857 ft 357 kts 322°
2026-04-24 00:43 28.98987 -81.28300 37972 ft 366 kts 323°
2026-04-24 00:44 29.03388 -81.31509 38163 ft 383 kts 323°
2026-04-24 00:44 29.05639 -81.33162 38403 ft 386 kts 323°
2026-04-24 00:44 29.07909 -81.34836 38651 ft 389 kts 323°
2026-04-24 00:45 29.10183 -81.36527 38869 ft 392 kts 323°
2026-04-24 00:45 29.12479 -81.38243 39063 ft 394 kts 323°
2026-04-24 00:45 29.14781 -81.39969 39254 ft 396 kts 323°
2026-04-24 00:45 29.17090 -81.41704 39443 ft 398 kts 323°
2026-04-24 00:46 29.19426 -81.43424 39636 ft 401 kts 326°
2026-04-24 00:46 29.21983 -81.44751 39833 ft 407 kts 337°
2026-04-24 00:46 29.24725 -81.45523 40000 ft 414 kts 347°
2026-04-24 00:46 29.27632 -81.45732 40052 ft 424 kts 358°
2026-04-24 00:47 29.33607 -81.45290 40096 ft 435 kts
2026-04-24 00:47 29.39682 -81.45555 40101 ft 440 kts 350°
2026-04-24 00:48 29.45740 -81.46415 40102 ft 429 kts 353°
2026-04-24 00:48 29.48669 -81.46610 40097 ft 415 kts 354°
2026-04-24 00:48 29.51500 -81.46827 40085 ft 401 kts 352°
2026-04-24 00:49 29.54237 -81.47117 40079 ft 389 kts 351°
2026-04-24 00:49 29.56901 -81.47401 40077 ft 379 kts 353°
2026-04-24 00:49 29.62030 -81.47850 40078 ft 361 kts 353°
2026-04-24 00:50 29.66903 -81.48295 40083 ft 346 kts 353°
2026-04-24 00:50 29.71619 -81.48721 40085 ft 333 kts 353°
2026-04-24 00:51 29.76160 -81.49138 40082 ft 322 kts 353°
2026-04-24 00:51 29.80570 -81.49539 40084 ft 313 kts 353°
2026-04-24 00:52 29.84825 -81.49924 40089 ft 305 kts 353°
2026-04-24 00:52 29.88996 -81.50370 40091 ft 295 kts 345°
2026-04-24 00:53 29.90956 -81.51002 40085 ft 291 kts 340°
2026-04-24 00:53 29.92882 -81.51680 40088 ft 287 kts 340°
2026-04-24 00:53 29.94785 -81.52362 40084 ft 285 kts 340°
2026-04-24 00:53 29.96666 -81.53035 40086 ft 282 kts 340°
2026-04-24 00:54 29.98532 -81.53701 40086 ft 279 kts 340°
2026-04-24 00:54 30.00378 -81.54363 40087 ft 276 kts 340°
2026-04-24 00:54 30.02211 -81.55014 40083 ft 276 kts 340°
2026-04-24 00:54 30.04056 -81.55678 40081 ft 279 kts 340°
2026-04-24 00:55 30.05900 -81.56337 40077 ft 282 kts 340°
2026-04-24 00:55 30.07787 -81.57011 40082 ft 286 kts 340°
2026-04-24 00:55 30.09700 -81.57699 40091 ft 288 kts 340°
2026-04-24 00:55 30.11629 -81.58386 40101 ft 291 kts 340°
2026-04-24 00:56 30.13576 -81.59086 40102 ft 294 kts 340°
2026-04-24 00:56 30.15540 -81.59790 40099 ft 297 kts 340°
2026-04-24 00:56 30.17526 -81.60501 40101 ft 299 kts 340°
2026-04-24 00:56 30.19526 -81.61220 40101 ft 302 kts 340°
2026-04-24 00:57 30.23537 -81.62661 40105 ft 306 kts 340°
2026-04-24 00:58 30.29696 -81.64867 40098 ft 311 kts 340°
2026-04-24 00:58 30.33852 -81.66369 40123 ft 314 kts 340°
2026-04-24 00:59 30.38047 -81.67875 40087 ft 317 kts 340°
2026-04-24 00:59 30.42277 -81.69406 40080 ft 319 kts 341°
2026-04-24 01:00 30.46537 -81.70937 40082 ft 321 kts 340°
2026-04-24 01:00 30.50798 -81.72478 40083 ft 323 kts 340°
2026-04-24 01:01 30.55113 -81.74039 40079 ft 325 kts 340°
2026-04-24 01:01 30.59451 -81.75608 40093 ft 330 kts 341°
2026-04-24 01:02 30.63624 -81.77790 40096 ft 329 kts 324°
2026-04-24 01:02 30.67290 -81.80920 40128 ft 331 kts 322°
2026-04-24 01:03 30.71014 -81.84118 40110 ft 333 kts 322°
2026-04-24 01:03 30.74749 -81.87335 40117 ft 334 kts 322°
2026-04-24 01:04 30.78501 -81.90564 40122 ft 336 kts 322°
2026-04-24 01:04 30.82240 -81.93788 40126 ft 337 kts 322°
2026-04-24 01:05 30.86008 -81.97042 40147 ft 337 kts 322°
2026-04-24 01:05 30.89784 -82.00307 40147 ft 338 kts 322°
2026-04-24 01:06 30.93575 -82.03584 40144 ft 339 kts 322°
2026-04-24 01:06 30.97367 -82.06865 40104 ft 340 kts 322°
2026-04-24 01:07 31.01147 -82.10141 40099 ft 342 kts 322°
2026-04-24 01:07 31.04983 -82.13470 40133 ft 345 kts 322°
2026-04-24 01:08 31.08850 -82.16829 40104 ft 347 kts 322°
2026-04-24 01:08 31.12741 -82.20213 40098 ft 350 kts 322°
2026-04-24 01:09 31.16661 -82.23624 40090 ft 352 kts 322°
2026-04-24 01:09 31.20598 -82.27053 40083 ft 354 kts 322°
2026-04-24 01:10 31.24556 -82.30505 40082 ft 355 kts 322°
2026-04-24 01:10 31.28528 -82.33974 40080 ft 357 kts 322°
2026-04-24 01:11 31.32494 -82.37440 40080 ft 358 kts 323°
2026-04-24 01:11 31.36497 -82.40941 40071 ft 359 kts 323°
2026-04-24 01:12 31.40501 -82.44448 40074 ft 360 kts 322°
2026-04-24 01:12 31.44487 -82.47945 40067 ft 360 kts 322°
2026-04-24 01:13 31.48507 -82.51475 40064 ft 360 kts 322°
2026-04-24 01:13 31.52527 -82.55006 40063 ft 361 kts 323°
2026-04-24 01:14 31.56546 -82.58541 40061 ft 361 kts 322°
2026-04-24 01:14 31.60565 -82.62081 40060 ft 361 kts 322°
2026-04-24 01:15 31.63912 -82.65032 40060 ft 361 kts 322°
2026-04-24 01:15 31.68596 -82.69151 40057 ft 361 kts 322°
2026-04-24 01:16 31.72592 -82.72718 40057 ft 361 kts 323°
2026-04-24 01:16 31.76637 -82.76265 40059 ft 361 kts 322°
2026-04-24 01:17 31.80647 -82.79834 40056 ft 361 kts 322°
2026-04-24 01:17 31.83991 -82.82791 40056 ft 361 kts 322°
2026-04-24 01:18 31.88009 -82.86358 40054 ft 361 kts 322°
2026-04-24 01:18 31.92670 -82.90499 40055 ft 361 kts 322°
2026-04-24 01:19 31.96010 -82.93471 40057 ft 361 kts 322°
2026-04-24 01:19 32.00014 -82.97037 40059 ft 361 kts 322°
2026-04-24 01:20 32.04013 -83.00601 40059 ft 360 kts 322°
2026-04-24 01:20 32.08022 -83.04177 40058 ft 360 kts 322°
2026-04-24 01:21 32.12020 -83.07750 40087 ft 360 kts 322°
2026-04-24 01:21 32.16016 -83.11326 40092 ft 360 kts 322°
2026-04-24 01:22 32.20007 -83.14898 40087 ft 360 kts 322°
2026-04-24 01:22 32.23996 -83.18474 40082 ft 360 kts 322°
2026-04-24 01:23 32.27960 -83.22033 40080 ft 359 kts 322°
2026-04-24 01:23 32.31942 -83.25612 40071 ft 359 kts 322°
2026-04-24 01:24 32.35902 -83.29173 40030 ft 356 kts 322°
2026-04-24 01:24 32.39830 -83.32709 40017 ft 353 kts 322°
2026-04-24 01:25 32.43732 -83.36226 40024 ft 351 kts 322°
2026-04-24 01:25 32.47603 -83.39721 40039 ft 349 kts 322°
2026-04-24 01:26 32.51467 -83.43214 40011 ft 348 kts 322°
2026-04-24 01:26 32.55293 -83.46673 40051 ft 346 kts 322°
2026-04-24 01:27 32.59122 -83.50140 40047 ft 345 kts 322°
2026-04-24 01:27 32.62942 -83.53603 40040 ft 344 kts 321°
2026-04-24 01:28 32.66740 -83.57052 40044 ft 344 kts 321°
2026-04-24 01:28 32.70532 -83.60496 40053 ft 343 kts 321°
2026-04-24 01:29 32.74318 -83.63939 40035 ft 343 kts 321°
2026-04-24 01:29 32.78105 -83.67386 40037 ft 342 kts 321°
2026-04-24 01:30 32.81861 -83.70812 40049 ft 341 kts 321°
2026-04-24 01:30 32.85629 -83.74251 40050 ft 341 kts 321°
2026-04-24 01:31 32.89395 -83.77690 40047 ft 341 kts 321°
2026-04-24 01:31 32.93130 -83.81104 40047 ft 340 kts 321°
2026-04-24 01:32 32.96885 -83.84544 40044 ft 340 kts 321°
2026-04-24 01:32 33.00639 -83.87975 40048 ft 340 kts 321°
2026-04-24 01:33 33.04321 -83.91365 40047 ft 340 kts 321°
2026-04-24 01:35 33.05164 -83.92139 40046 ft 339 kts 321°
2026-04-24 01:36 33.07358 -83.94152 40049 ft 339 kts 321°
2026-04-24 01:36 33.10845 -83.97357 40043 ft 339 kts 321°
2026-04-24 01:37 33.14588 -84.00802 40041 ft 339 kts 321°
2026-04-24 01:37 33.18323 -84.04243 40052 ft 339 kts 321°
2026-04-24 01:38 33.21995 -84.07734 40063 ft 338 kts 315°
2026-04-24 01:38 33.24885 -84.12126 40076 ft 337 kts 299°
2026-04-24 01:39 33.26881 -84.17184 40088 ft 336 kts 294°
2026-04-24 01:39 33.28827 -84.22277 40099 ft 336 kts 294°
2026-04-24 01:40 33.30763 -84.27383 40100 ft 336 kts 294°
2026-04-24 01:40 33.32684 -84.32444 40105 ft 336 kts 294°
2026-04-24 01:41 33.34617 -84.37544 40101 ft 337 kts 294°
2026-04-24 01:41 33.36552 -84.42656 40058 ft 337 kts 294°
2026-04-24 01:42 33.38483 -84.47766 40060 ft 337 kts 294°
2026-04-24 01:42 33.40409 -84.52877 40062 ft 337 kts 294°
2026-04-24 01:43 33.42320 -84.57956 40063 ft 337 kts 294°
2026-04-24 01:43 33.44247 -84.63080 40061 ft 337 kts 294°
2026-04-24 01:44 33.46170 -84.68199 40058 ft 337 kts 293°
2026-04-24 01:44 33.48092 -84.73328 40068 ft 337 kts 293°
2026-04-24 01:45 33.50013 -84.78464 40067 ft 337 kts 293°
2026-04-24 01:45 33.51921 -84.83570 40094 ft 336 kts 293°
2026-04-24 01:46 33.53830 -84.88688 40137 ft 336 kts 293°
2026-04-24 01:46 33.55736 -84.93798 40146 ft 336 kts 293°
2026-04-24 01:47 33.57641 -84.98920 40156 ft 336 kts 293°
2026-04-24 01:47 33.59544 -85.04047 40176 ft 336 kts 292°
2026-04-24 01:48 33.61436 -85.09148 40177 ft 337 kts 292°
2026-04-24 01:48 33.63336 -85.14283 40178 ft 337 kts 292°
2026-04-24 01:49 33.65235 -85.19423 40178 ft 337 kts 292°
2026-04-24 01:49 33.67136 -85.24569 40172 ft 337 kts 292°
2026-04-24 01:50 33.69035 -85.29722 40159 ft 337 kts 292°
2026-04-24 01:50 33.70932 -85.34881 40094 ft 338 kts 292°
2026-04-24 01:51 33.72818 -85.40016 40097 ft 338 kts 292°
2026-04-24 01:51 33.74197 -85.43776 40094 ft 338 kts 292°
2026-04-24 01:52 33.75496 -85.47324 40094 ft 338 kts 292°
2026-04-24 01:52 33.77392 -85.52498 40095 ft 338 kts 292°
2026-04-24 01:53 33.79280 -85.57674 40099 ft 338 kts 292°
2026-04-24 01:53 33.81173 -85.62851 40100 ft 338 kts 292°
2026-04-24 01:54 33.83059 -85.68035 40103 ft 338 kts 291°
2026-04-24 01:54 33.84933 -85.73191 40111 ft 338 kts 291°
2026-04-24 01:55 33.86821 -85.78391 40113 ft 338 kts 292°
2026-04-24 01:55 33.88706 -85.83587 40115 ft 339 kts 291°
2026-04-24 01:56 33.88955 -85.84277 40114 ft 339 kts 291°
2026-04-24 01:56 33.90301 -85.88006 40116 ft 339 kts 291°
2026-04-24 01:57 33.90367 -85.88189 40116 ft 339 kts 291°
2026-04-24 01:59 33.90684 -85.89066 40118 ft 339 kts 291°
2026-04-24 01:59 33.92544 -85.94209 40120 ft 339 kts 291°
2026-04-24 02:00 33.94428 -85.99425 40121 ft 339 kts 291°
2026-04-24 02:00 33.96296 -86.04616 40123 ft 339 kts 291°
2026-04-24 02:01 33.97943 -86.08904 40124 ft 340 kts 298°
2026-04-24 02:01 34.00861 -86.14536 40122 ft 340 kts 300°
2026-04-24 02:02 34.02972 -86.18599 40118 ft 341 kts 299°
2026-04-24 02:02 34.04034 -86.20646 40125 ft 341 kts 299°
2026-04-24 02:03 34.07125 -86.26600 40116 ft 341 kts 299°
2026-04-24 02:03 34.09641 -86.31458 40118 ft 341 kts 299°
2026-04-24 02:04 34.12153 -86.36315 40109 ft 341 kts 299°
2026-04-24 02:04 34.14667 -86.41177 40109 ft 341 kts 299°
2026-04-24 02:05 34.17181 -86.46048 40105 ft 341 kts 299°
2026-04-24 02:05 34.19689 -86.50916 40106 ft 341 kts 299°